This is the latest recevied weather packets stored in our database for station/object SP1BMW-13. If no packets are shown the sender has not sent any weather packets the latest 10 day(s).
| Time | Temp. | Humidity | Pressure | Rain* | Wind** | Luminosity | Snow |
|---|---|---|---|---|---|---|---|
| 1778130774 | 7.22° C | 86% | 1011.8 hPa | 0 mm | 2.24 m/s, 50° | 14 W/m² | - |
| 1778130714 | 7.22° C | 85% | 1011.7 hPa | 0 mm | 0 m/s | 14 W/m² | - |
| 1778130654 | 7.22° C | 85% | 1011.7 hPa | 0 mm | 0.89 m/s, 52° | 13 W/m² | - |
| 1778130594 | 7.22° C | 85% | 1011.7 hPa | 0 mm | 1.34 m/s, 40° | 14 W/m² | - |
| 1778130534 | 7.22° C | 85% | 1011.5 hPa | 0 mm | 0.89 m/s, 29° | 16 W/m² | - |
| 1778130474 | 7.22° C | 85% | 1011.6 hPa | 0 mm | 0.89 m/s, 22° | 17 W/m² | - |
| 1778130414 | 7.22° C | 85% | 1011.5 hPa | 0 mm | 0.45 m/s, 41° | 17 W/m² | - |
| 1778130354 | 7.22° C | 84% | 1011.7 hPa | 0 mm | 0.45 m/s, 16° | 17 W/m² | - |
| 1778130294 | 7.22° C | 84% | 1011.5 hPa | 0 mm | 0.89 m/s, 359° | 17 W/m² | - |
| 1778130234 | 7.22° C | 84% | 1011.5 hPa | 0 mm | 0.45 m/s, 20° | 18 W/m² | - |
| 1778130174 | 7.22° C | 84% | 1011.5 hPa | 0 mm | 0.89 m/s, 6° | 19 W/m² | - |
| 1778130115 | 7.22° C | 84% | 1011.5 hPa | 0 mm | 0.45 m/s, 23° | 19 W/m² | - |
| 1778130055 | 7.22° C | 85% | 1011.2 hPa | 0 mm | 1.79 m/s, 56° | 20 W/m² | - |
| 1778129995 | 7.22° C | 84% | 1011.6 hPa | 0 mm | 0.45 m/s, 317° | 21 W/m² | - |
| 1778129934 | 7.22° C | 84% | 1011.3 hPa | 0 mm | 0.45 m/s, 27° | 22 W/m² | - |
| 1778129874 | 7.22° C | 84% | 1011.6 hPa | 0 mm | 1.79 m/s, 24° | 25 W/m² | - |
| 1778129814 | 7.22° C | 85% | 1011.6 hPa | 0 mm | 0.89 m/s, 40° | 26 W/m² | - |
| 1778129754 | 7.22° C | 85% | 1011.3 hPa | 0 mm | 1.34 m/s, 43° | 30 W/m² | - |
| 1778129694 | 7.22° C | 85% | 1011.4 hPa | 0 mm | 0.45 m/s, 45° | 30 W/m² | - |
| 1778129634 | 7.22° C | 85% | 1011.4 hPa | 0 mm | 0 m/s | 28 W/m² | - |
| 1778129574 | 7.22° C | 85% | 1011.4 hPa | 0 mm | 1.34 m/s, 52° | 27 W/m² | - |
| 1778129514 | 7.22° C | 85% | 1011.4 hPa | 0 mm | 0.45 m/s, 72° | 27 W/m² | - |
| 1778129454 | 7.22° C | 85% | 1011.3 hPa | 0 mm | 0.89 m/s, 47° | 24 W/m² | - |
| 1778129394 | 7.22° C | 85% | 1011.4 hPa | 0 mm | 0 m/s | 24 W/m² | - |
| 1778129334 | 7.22° C | 85% | 1011.3 hPa | 0 mm | 1.79 m/s, 37° | 23 W/m² | - |
* Rain latest hour (hover to see other rain measurements)
** Current wind speed in m/s (hover to see current wind gust speed)